Date String (YYYY-MM-DD hh:mm:ss) UTC,Instrument flags,Ambient pressure (hPa),Sample flow (lpm),Bypass flow (lpm),Sample temperature (°C),Ambient temperature (°C),ASC tube jacket temperature (°C),LED temperature (°C),Box temperature (°C),Sample RH (%),Span deviation,Mass concentration (μg/m³),Mass concentration (μg/m³),Mass concentration (μg/m³)
DateTimeUTC,F1_M11,P_M11,Q1_M11,Q2_M11,T1_M11,T2_M11,T3_M11,T4_M11,T5_M11,U1_M11,ZSPAN_M11,X2_M11,X0_M11,X1_M11
2021-09-08 02:00:00,,0832.3,5.00,0.00,29.4,28.6,00.0,38.3,31.3,19.1,0000.9,0038.82,0068.07,0035.22
2021-09-08 02:01:00,,0832.4,5.00,0.00,29.4,28.7,00.0,38.4,31.4,19.0,0000.9,0038.91,0067.21,0035.26
2021-09-08 02:02:00,,0832.3,4.98,0.00,29.5,28.7,00.0,38.4,31.4,19.0,0000.7,0038.98,0066.21,0035.36
2021-09-08 02:03:00,,0832.4,5.00,0.00,29.4,27.1,00.0,38.4,30.9,19.0,0001.0,0039.04,0065.88,0035.44
2021-09-08 02:04:00,,0832.3,5.00,0.00,29.3,26.4,00.0,38.4,30.7,19.1,0001.1,0039.13,0064.29,0035.50
2021-09-08 02:05:00,,0832.3,5.01,0.00,29.3,26.6,00.0,38.4,30.8,19.2,0001.2,0039.11,0064.07,0035.55
2021-09-08 02:06:00,,0832.3,5.00,0.00,29.2,26.9,00.0,38.3,30.9,19.2,0001.2,0039.20,0064.20,0035.62
2021-09-08 02:07:00,,0832.4,4.99,0.00,29.2,27.3,00.0,38.3,31.0,19.2,0001.0,0039.16,0063.56,0035.64
2021-09-08 02:08:00,,0832.4,5.00,0.00,29.3,27.7,00.0,38.3,31.1,19.1,0001.1,0039.16,0063.40,0035.72
2021-09-08 02:09:00,,0832.4,5.01,0.00,29.3,28.0,00.0,38.3,31.1,19.1,0001.0,0039.17,0062.46,0035.78
2021-09-08 02:10:00,,0832.5,4.99,0.00,29.4,28.2,00.0,38.4,31.2,19.0,0001.2,0039.20,0061.25,0035.80
2021-09-08 02:11:00,,0832.5,5.01,0.00,29.4,28.4,00.0,38.4,31.3,19.0,0001.3,0039.18,0060.69,0035.82
2021-09-08 02:12:00,,0832.5,5.00,0.00,29.5,28.6,00.0,38.4,31.4,18.9,0001.5,0039.09,0060.42,0035.78
2021-09-08 02:13:00,,0832.5,4.99,0.00,29.5,28.7,00.0,38.4,31.4,18.8,0001.3,0038.98,0059.40,0035.72
2021-09-08 02:14:00,,0832.5,5.01,0.00,29.5,27.4,00.0,38.5,31.0,18.7,0001.0,0038.89,0058.53,0035.68
2021-09-08 02:15:00,,0832.5,5.00,0.00,29.3,25.5,00.0,38.4,30.4,18.8,0000.9,0038.89,0058.44,0035.70
2021-09-08 02:16:00,,0832.5,5.00,0.00,29.1,25.3,00.0,38.4,30.4,18.9,0000.9,0038.94,0058.42,0035.75
2021-09-08 02:17:00,,0832.5,5.00,0.00,29.1,25.8,00.0,38.3,30.5,19.0,0001.2,0038.93,0058.10,0035.82
2021-09-08 02:18:00,,0832.6,5.01,0.00,29.1,26.3,00.0,38.3,30.6,18.9,0001.4,0038.95,0058.54,0035.87
2021-09-08 02:19:00,,0832.6,5.01,0.00,29.1,26.8,00.0,38.3,30.8,18.8,0001.6,0039.12,0058.92,0035.94
2021-09-08 02:20:00,,0832.6,5.00,0.00,29.1,27.2,00.0,38.2,30.9,18.8,0001.7,0039.25,0059.66,0036.02
2021-09-08 02:21:00,,0832.6,4.99,0.00,29.1,27.6,00.0,38.2,30.9,18.7,0001.6,0039.31,0059.68,0036.10
2021-09-08 02:22:00,,0832.6,5.00,0.00,29.2,27.8,00.0,38.3,31.0,18.6,0001.7,0039.43,0059.67,0036.16
2021-09-08 02:23:00,,0832.6,5.00,0.00,29.2,28.1,00.0,38.3,31.1,18.5,0001.6,0039.60,0061.78,0036.34
2021-09-08 02:24:00,,0832.6,5.01,0.00,29.3,28.3,00.0,38.3,31.1,18.4,0001.9,0039.68,0062.93,0036.46
2021-09-08 02:25:00,,0832.7,4.99,0.00,29.3,28.4,00.0,38.3,31.2,18.3,0002.1,0039.83,0063.56,0036.61
2021-09-08 02:26:00,,0832.7,5.00,0.00,29.4,28.6,00.0,38.3,31.3,18.1,0002.2,0039.99,0063.68,0036.75
2021-09-08 02:27:00,,0832.7,5.01,0.00,29.4,28.7,00.0,38.4,31.3,17.9,0002.3,0040.18,0063.90,0036.91
2021-09-08 02:28:00,,0832.7,5.00,0.00,29.5,28.8,00.0,38.4,31.4,17.9,0001.9,0040.34,0065.03,0037.07
2021-09-08 02:29:00,,0832.7,4.99,0.00,29.5,28.3,00.0,38.4,31.3,17.8,0002.0,0040.44,0064.44,0037.21
2021-09-08 02:30:00,,0832.7,5.01,0.00,29.4,26.4,00.0,38.4,30.8,17.9,0002.0,0040.52,0064.22,0037.27
2021-09-08 02:31:00,,0832.7,4.99,0.00,29.3,26.1,00.0,38.4,30.7,18.0,0002.0,0040.64,0064.98,0037.36
2021-09-08 02:32:00,,0832.7,5.01,0.00,29.2,26.5,00.0,38.4,30.7,17.9,0001.9,0040.71,0065.53,0037.45
2021-09-08 02:33:00,,0832.7,4.99,0.00,29.2,26.9,00.0,38.3,30.8,18.0,0001.7,0040.81,0066.30,0037.56
2021-09-08 02:34:00,,0832.7,5.00,0.00,29.2,27.3,00.0,38.3,30.9,17.9,0001.9,0040.91,0065.25,0037.63
2021-09-08 02:35:00,,0832.7,5.00,0.00,29.2,27.6,00.0,38.3,31.0,17.9,0001.8,0041.07,0064.57,0037.72
2021-09-08 02:36:00,,0832.7,5.00,0.00,29.3,27.9,00.0,38.3,31.1,17.9,0002.0,0041.15,0064.36,0037.79
2021-09-08 02:37:00,,0832.7,5.00,0.00,29.3,28.1,00.0,38.3,31.1,17.9,0002.0,0041.15,0064.23,0037.80
2021-09-08 02:38:00,,0832.8,4.99,0.00,29.4,28.3,00.0,38.4,31.2,17.9,0001.9,0041.22,0064.40,0037.81
2021-09-08 02:39:00,,0832.8,5.01,0.00,29.4,28.5,00.0,38.4,31.3,17.9,0002.2,0041.26,0063.69,0037.79
2021-09-08 02:40:00,,0832.8,5.00,0.00,29.5,28.6,00.0,38.4,31.3,17.8,0001.8,0041.29,0064.12,0037.78
2021-09-08 02:41:00,,0832.8,5.01,0.00,29.5,28.7,00.0,38.4,31.4,17.7,0001.4,0041.38,0065.14,0037.90
2021-09-08 02:42:00,,0832.7,4.99,0.00,29.5,28.7,00.0,38.5,31.4,17.7,0001.1,0041.45,0064.76,0038.01
2021-09-08 02:43:00,,0832.7,5.00,0.00,29.5,27.0,00.0,38.5,31.0,17.8,0001.1,0041.62,0064.23,0038.10
2021-09-08 02:44:00,,0832.7,5.00,0.00,29.4,26.2,00.0,38.5,30.8,17.9,0001.2,0041.60,0064.41,0038.12
2021-09-08 02:45:00,,0832.7,5.00,0.00,29.3,26.4,00.0,38.4,30.8,18.0,0001.2,0041.58,0065.45,0038.11
2021-09-08 02:46:00,,0832.7,4.99,0.00,29.2,26.8,00.0,38.4,30.9,18.2,0001.5,0041.52,0066.93,0038.06
2021-09-08 02:47:00,,0832.8,5.01,0.00,29.3,27.2,00.0,38.4,30.9,18.1,0001.5,0041.43,0066.84,0037.98
2021-09-08 02:48:00,,0832.8,5.00,0.00,29.3,27.5,00.0,38.4,31.0,18.1,0001.5,0041.39,0067.43,0037.95
2021-09-08 02:49:00,,0832.8,5.00,0.00,29.3,27.8,00.0,38.4,31.1,18.0,0001.4,0041.20,0066.87,0037.85
2021-09-08 02:50:00,,0832.8,5.00,0.00,29.3,28.1,00.0,38.4,31.2,17.9,0001.3,0041.11,0066.69,0037.83
2021-09-08 02:51:00,,0832.9,4.99,0.00,29.4,28.3,00.0,38.4,31.2,17.8,0001.3,0041.14,0065.99,0037.84
2021-09-08 02:52:00,,0832.9,5.00,0.00,29.4,28.4,00.0,38.4,31.3,17.8,0001.4,0041.15,0065.93,0037.83
2021-09-08 02:53:00,,0832.8,5.01,0.00,29.5,28.5,00.0,38.5,31.3,17.7,0001.4,0041.12,0066.65,0037.78
2021-09-08 02:54:00,,0832.9,5.00,0.00,29.5,28.7,00.0,38.5,31.3,17.7,0001.5,0040.98,0066.74,0037.72
2021-09-08 02:55:00,,0833.0,4.99,0.00,29.6,28.8,00.0,38.5,31.4,17.7,0001.3,0040.98,0066.04,0037.75
2021-09-08 02:56:00,,0833.0,5.01,0.00,29.6,28.6,00.0,38.5,31.4,17.6,0001.2,0040.92,0064.22,0037.73
2021-09-08 02:57:00,,0833.0,5.00,0.00,29.5,26.6,00.0,38.5,30.9,17.8,0000.7,0040.85,0063.49,0037.67
2021-09-08 02:58:00,,0833.0,5.00,0.00,29.3,25.2,00.0,38.5,30.5,17.9,0000.6,0040.87,0063.48,0037.68
2021-09-08 02:59:00,,0833.0,5.00,0.00,29.2,25.4,00.0,38.4,30.5,18.0,0000.4,0041.00,0063.18,0037.78
